Weather History for KHSE - July, 2012

Change the Weather History Date:

Saturday, July 21, 2012

  Actual Average Record
Temperature  
Mean Temperature 81 °F 79 °F  
Max Temperature 87 °F 85 °F 94 °F (1977)
Min Temperature 75 °F 74 °F 64 °F (1976)
Degree Days  
Heating Degree Days 0 0  
Month to date heating degree days 0 0  
Since 1 June heating degree days 0 3  
Since 1 July heating degree days 0 0  
Cooling Degree Days 16 14  
Month to date cooling degree days 369 291  
Year to date cooling degree days 1016 742  
Since 1 June cooling degree days 691 599  
Growing Degree Days 30 (Base 50)    
Moisture  
Dew Point 74 °F    
Average Humidity 81    
Maximum Humidity 94    
Minimum Humidity 68    
Precipitation  
Precipitation 0.40 in 0.17 in 3.20 in (2005)
Month to date precipitation 4.07 3.19  
Year to date precipitation 29.60 28.46  
Snow  
Snow 0.00 in - - ()
Month to date snowfall 0.0  
Since 1 July snowfall 0.0  
Snow Depth 0.00 in    
Sea Level Pressure  
Sea Level Pressure 30.02 in    
Wind  
Wind Speed 9 mph (WSW)    
Max Wind Speed 18 mph    
Max Gust Speed 26 mph    
Visibility 7 miles    
Events Rain    
T = Trace of Precipitation, MM = Missing Value Source: NWS Daily Summary

Daily Weather History Graph

Daily Weather History Graph

Search for Another Location

Airport or City:

Trip Planner

Search our weather history database for the weather conditions in past years. The results will help you decide how hot, cold, wet, or windy it might be!

Date:

Astronomy

Jul. 21, 2012 Rise Set
Actual Time 6:03 AM EDT 8:13 PM EDT
Civil Twilight 5:34 AM EDT 8:42 PM EDT
Nautical Twilight 4:59 AM EDT 9:17 PM EDT
Astronomical Twilight 4:21 AM EDT 9:55 PM EDT
Moon 8:34 AM EDT (7/21) 9:33 PM EDT (7/21)
Length of Visible Light 15h 07m
Length of Day
14h 10m
Waxing Crescent, 7% of the Moon is Illuminated
Jul 21
Waxing Crescent
Jul 26
First Quarter
Aug 1
Full
Aug 9
Last Quarter
Aug 17
New

Hourly Weather History & Observations

Time (EDT) Temp. Heat Index Dew Point Humidity Pressure Visibility Wind Dir Wind Speed Gust Speed Precip Events Conditions
12:08 AM 75.2 °F - 71.6 °F 89% 30.00 in 1.8 mi NW 17.3 mph 28.8 mph 0.06 in Rain Heavy Rain
12:33 AM 75.2 °F - 71.6 °F 89% 29.99 in 2.0 mi West 8.1 mph - 0.42 in Rain Rain
12:51 AM 73.9 °F - 71.1 °F 91% 30.00 in 0.8 mi West 9.2 mph - 0.71 in Rain Heavy Rain
1:09 AM 75.2 °F - 73.4 °F 94% 29.99 in 1.5 mi Variable 5.8 mph - 0.71 in Rain Heavy Rain
1:13 AM 75.2 °F - 73.4 °F 94% 29.99 in 3.0 mi SW 4.6 mph - 0.71 in Rain Light Rain
1:32 AM 75.2 °F - 73.4 °F 94% 29.99 in 6.0 mi West 6.9 mph - 0.72 in Rain Light Rain
1:51 AM 75.9 °F - 73.9 °F 94% 29.99 in 4.0 mi WSW 6.9 mph - 0.74 in Rain Light Rain
2:13 AM 77.0 °F - 73.4 °F 89% 29.99 in 4.0 mi WSW 6.9 mph - 0.02 in Rain Light Rain
2:29 AM 77.0 °F - 73.4 °F 89% 29.98 in 5.0 mi WSW 10.4 mph - 0.02 in Rain Light Rain
2:51 AM 77.0 °F - 73.9 °F 90% 29.97 in 5.0 mi WSW 8.1 mph - 0.02 in   Mostly Cloudy
3:51 AM 75.9 °F - 73.0 °F 91% 29.97 in 7.0 mi SW 12.7 mph - 0.01 in   Mostly Cloudy
4:51 AM 77.0 °F - 73.9 °F 90% 29.95 in 7.0 mi WSW 6.9 mph - N/A   Clear
5:51 AM 78.1 °F - 73.9 °F 87% 29.97 in 7.0 mi WSW 11.5 mph 20.7 mph N/A   Scattered Clouds
6:36 AM 78.8 °F - 73.4 °F 83% 29.99 in 7.0 mi WSW 15.0 mph 19.6 mph N/A   Scattered Clouds
6:51 AM 78.1 °F - 73.9 °F 87% 29.99 in 6.0 mi WSW 12.7 mph - N/A   Partly Cloudy
7:51 AM 78.1 °F - 75.0 °F 90% 29.99 in 5.0 mi WSW 10.4 mph - N/A   Mostly Cloudy
8:44 AM 78.8 °F - 73.4 °F 83% 30.00 in 8.0 mi WSW 13.8 mph 19.6 mph N/A   Mostly Cloudy
8:51 AM 79.0 °F - 73.9 °F 84% 30.00 in 7.0 mi West 11.5 mph 19.6 mph N/A   Overcast
9:51 AM 81.0 °F 86.2 °F 73.9 °F 79% 30.02 in 10.0 mi West 11.5 mph 18.4 mph N/A   Mostly Cloudy
10:34 AM 80.6 °F 85.4 °F 73.4 °F 79% 30.04 in 10.0 mi West 10.4 mph - N/A   Mostly Cloudy
10:49 AM 80.6 °F 86.2 °F 75.2 °F 84% 30.04 in 10.0 mi West 9.2 mph - N/A   Overcast
10:51 AM 81.0 °F 86.7 °F 75.0 °F 82% 30.04 in 10.0 mi West 9.2 mph - N/A   Overcast
11:51 AM 84.0 °F 91.9 °F 75.0 °F 74% 30.05 in 10.0 mi WNW 8.1 mph - N/A   Scattered Clouds
12:51 PM 84.9 °F 94.1 °F 75.9 °F 74% 30.06 in 10.0 mi WNW 9.2 mph - N/A   Scattered Clouds
1:03 PM 86.0 °F 95.1 °F 75.2 °F 70% 30.06 in 10.0 mi West 8.1 mph - N/A   Mostly Cloudy
1:51 PM 87.1 °F 97.3 °F 75.9 °F 69% 30.04 in 10.0 mi Variable 5.8 mph - N/A   Mostly Cloudy
2:02 PM 86.0 °F 96.9 °F 77.0 °F 74% 30.04 in 9.0 mi SSW 4.6 mph - N/A   Scattered Clouds
2:21 PM 82.4 °F 89.5 °F 75.2 °F 79% 30.04 in 8.0 mi SSW 6.9 mph - N/A   Mostly Cloudy
2:51 PM 84.0 °F 92.6 °F 75.9 °F 76% 30.05 in 9.0 mi SW 6.9 mph - N/A   Overcast
3:12 PM 82.4 °F 89.5 °F 75.2 °F 79% 30.05 in 9.0 mi SW 5.8 mph - N/A   Overcast
3:19 PM 82.4 °F 89.5 °F 75.2 °F 79% 30.05 in 8.0 mi WSW 6.9 mph - N/A   Overcast
3:38 PM 78.8 °F - 71.6 °F 78% 30.05 in 8.0 mi WSW 11.5 mph 26.5 mph N/A   Overcast
3:51 PM 78.1 °F - 71.1 °F 79% 30.05 in 5.0 mi West 13.8 mph 23.0 mph 0.00 in Rain Light Rain
4:51 PM 78.1 °F - 73.0 °F 84% 30.02 in 8.0 mi SW 5.8 mph - 0.02 in   Scattered Clouds
5:51 PM 82.0 °F 87.4 °F 73.0 °F 74% 30.02 in 10.0 mi SW 9.2 mph - N/A   Clear
6:51 PM 81.0 °F 86.7 °F 75.0 °F 82% 30.04 in 8.0 mi SW 10.4 mph 17.3 mph N/A   Clear
7:51 PM 81.0 °F 87.3 °F 75.9 °F 85% 30.05 in 7.0 mi WSW 10.4 mph - N/A   Partly Cloudy
8:51 PM 81.0 °F 84.4 °F 70.0 °F 69% 30.09 in 10.0 mi WNW 11.5 mph 18.4 mph 0.00 in Rain Light Rain
9:51 PM 78.1 °F - 72.0 °F 81% 30.09 in 10.0 mi Variable 5.8 mph - 0.00 in   Clear
10:51 PM 79.0 °F - 70.0 °F 74% 30.11 in 10.0 mi Calm Calm - N/A   Mostly Cloudy
11:51 PM 78.1 °F - 71.1 °F 79% 30.12 in 10.0 mi NNW 9.2 mph 20.7 mph N/A   Mostly Cloudy